MyTimes logo

TIMES

Webb Imagery

22/02/2004
Cowes Classic
500m Swim / 4.0km Run

(Click on competitor name to view personalised results)

Name
Race #
Category
Team Name
Time
(h:mm:ss)
Avg Speed
km/hr
OAll
Place
Cat
Place
MC KENZIE Craig#91Senior Male0:21:21 12.6 11
ROBERTS Sean#744Team Male0:21:37 12.5 21
COLTHUP Luke#62Senior Male0:21:45 12.4 32
HUMPHREY Nicholas#708Team Male0:21:53 12.3 42
RIX Joshua#94Senior Male0:22:15 12.1 53
MACLAREN Rob#748Team Male0:23:28 11.5 63
BARR Shannon#83Senior Male0:23:59 11.3 74
CAPLE Alex#729Team Male0:24:11 11.2 84
DUFFY Martin#716Team Mixed0:24:44 10.9 91
DUNCAN Nick#735Team Male0:24:46 10.9 105
EVANS Brad#36Senior Male0:24:47 10.9 115
FISCH Emily#709Team Mixed0:25:03 10.8 122
FLEISNER Rob#23040-49 Male0:25:04 10.8 131
REID Penny#17Senior Female0:25:05 10.8 141
BRUNNEN Ashley#715Team Mixed0:25:05 10.8 153
MOUNSEY Mark#22340-49 Male0:25:06 10.8 162
BOSWORTH Mark#218Junior Male0:25:07 10.7 171
CLARKSON Mack#35Senior Male0:25:10 10.7 186
PAGE Steve#26740-49 Male0:25:10 10.7 193
HOWLETT Aaron#77Senior Male0:25:22 10.6 207
TAYLOR Chris#736Team Male0:25:26 10.6 216
MC GRATH Stephanie#55Senior Female0:25:28 10.6 222
WACHTER Aurel#74Senior Male0:25:32 10.6 238
DROSTEN Glenn#215Junior Male0:25:36 10.5 242
DALLINGER Andrew#54Senior Male0:25:40 10.5 259
YUSKO Bill#23850+ Male0:25:51 10.4 261
NAK Rodney#99Senior Male0:25:56 10.4 2710
HORE Ritchie#41Senior Male0:25:58 10.4 2811
MAYERS Stuart#89Senior Male0:26:04 10.4 2912
DICKSON James#733Team Male0:26:10 10.3 307
GARRETT Justin#59Senior Male0:26:13 10.3 3113
DICKSON Jess#747Team Mixed0:26:14 10.3 324
MC HENRY David#251Junior Male0:26:16 10.3 333
CURRIE Matthew#81Senior Male0:26:19 10.3 3414
HUGHES Caitlin#750Team Female0:26:35 10.2 351
HARPER Lisa#740Team Female0:26:40 10.1 362
COOPER Peter#26140-49 Male0:26:42 10.1 374
ROBERTSON Matthew#214Junior Male0:26:43 10.1 384
HANLEY Philip#27350+ Male0:26:46 10.1 392
TROJAN Lara#749Team Mixed0:26:50 10.1 405
RAINEY Peter#97Senior Male0:26:56 10 4115
MAIDMENT-WOOD Karen#20440-49 Female0:27:12 9.9 421
RITTER Andrew#22Senior Male0:27:19 9.9 4316
FALTING Ashley#85Senior Male0:27:21 9.9 4417
HEWETT Noel#23140-49 Male0:27:25 9.8 455
VITIRITTI Karina#16Senior Female0:27:30 9.8 463
AITKEN Nick#269Junior Male0:27:34 9.8 475
JOHNSON Glen#22940-49 Male0:27:35 9.8 486
MANEFIELD Neil#25350+ Male0:27:38 9.8 493
KERR Lewis#277Junior Male0:27:42 9.7 506
CRAIGE Kevin#45Senior Male0:27:43 9.7 5118
SPOTTISWOOD James#65Senior Male0:27:44 9.7 5219
PERRY Chris#245Junior Male0:27:56 9.7 537
MARSHALL Luke#34Senior Male0:27:59 9.6 5420
DAVIE Rhys#63Senior Male0:28:02 9.6 5521
CLOSE Jason#38Senior Male0:28:03 9.6 5622
TAYLOR Max#706Team Male0:28:04 9.6 578
HEALEY Jodi#12Senior Female0:28:19 9.5 584
OSMOND Travis#79Senior Male0:28:25 9.5 5923
HAGDEN Oliver#707Team Male0:28:25 9.5 609
MC ALLISTER Danny#22440-49 Male0:28:27 9.5 617
MEADE Simon#745Team Male0:28:29 9.5 6210
KENNEDY Brook#249Junior Male0:28:29 9.5 638
WILSON Susi#58Senior Female0:28:32 9.5 645
GASSON Dean#713Team Mixed0:28:32 9.5 656
SEWELL Chrisopher#243Junior Male0:28:33 9.5 669
OBERHOFER Helen#96Senior Female0:28:34 9.5 676
MARUM Ellyse#739Team Mixed0:28:37 9.4 687
PANEBIANCO Dean#42Senior Male0:28:40 9.4 6924
O'CONNELL Christina#75Senior Female0:28:42 9.4 707
MANNING Simon#756Team Male0:28:44 9.4 7111
JONES Gregory#27140-49 Male0:28:49 9.4 728
LIDSTONE Blair#27Senior Male0:28:52 9.4 7325
DORGAN Tim#732Team Male0:28:53 9.3 7412
PAGE Troy#266Junior Male0:28:53 9.3 7510
LEGGE Andrew#23Senior Male0:28:54 9.3 7626
HARVEY Nick#755Team Male0:29:02 9.3 7713
NORMAN Jeffrey#26840-49 Male0:29:03 9.3 789
KOSTER Keira#724Team Mixed0:29:05 9.3 798
CARTER Lachlan#250Junior Male0:29:08 9.3 8011
BIVIANO Frank#717Team Male0:29:15 9.2 8114
JUDD Anna#15Senior Female0:29:16 9.2 828
DAVIES Julie-Ann#82Senior Female0:29:24 9.2 839
SCHEPEMAKER Nick#52Senior Male0:29:27 9.2 8427
DAVIES Clive#23950+ Male0:29:33 9.1 854
SCHOFIELD Alice#44Senior Female0:29:38 9.1 8610
RODGERS Andrew#32Senior Male0:29:40 9.1 8728
VERNON Beau#275Junior Male0:29:43 9.1 8812
MUIR Ian#25850+ Male0:29:47 9.1 895
NEVINS Sue#20340-49 Female0:29:48 9.1 902
GALBRAITH Dana#27640-49 Male0:29:57 9 9110
MC ALLISTER Brett#217Junior Male0:30:00 9 9213
BRENSTER Neil#26440-49 Male0:30:03 9 9311
LOVE Kevin#722Team Male0:30:05 9 9415
LA SCALA Nino#80Senior Male0:30:09 9 9529
PRICE Brodie#727Team Male0:30:12 8.9 9616
O'HEA Esther#704Team Female0:30:15 8.9 973
BRADDY Nicholas#33Senior Male0:30:24 8.9 9830
MANGIONI Chris#29Senior Male0:30:34 8.8 9931
SMITH Dennis#25750+ Male0:30:35 8.8 1006
CATANIA Sebastian#46Senior Male0:30:37 8.8 10132
KOSTER William#247Junior Male0:30:37 8.8 10214
O'CONNELL Sarah#4Senior Female0:30:40 8.8 10311
MARTIN Brian#26340-49 Male0:30:41 8.8 10412
PAPWORTH Troy#30Senior Male0:30:44 8.8 10533
DAVIE Angie#20540-49 Female0:30:45 8.8 1063
FALK Michael#25940-49 Male0:30:48 8.8 10713
BUDGE David#752Team Male0:30:49 8.8 10817
MC DONAGH Andrew#86Senior Male0:30:53 8.7 10934
PLANT Mark#718Team Male0:30:53 8.7 11018
RODGERS Adam#66Senior Male0:30:55 8.7 11135
CAPLE Anna#731Team Mixed0:30:58 8.7 1129
THURGOOD Lachlan#49Senior Male0:30:59 8.7 11336
HUGHES Jed#270Junior Male0:31:01 8.7 11415
PALMERI Matthew#72Senior Male0:31:02 8.7 11537
DUGGAN Peter#711Team Mixed0:31:03 8.7 11610
FLEISNER Paul#24050+ Male0:31:06 8.7 1177
CARTER Dean#24250+ Male0:31:11 8.7 1188
BILLING Mike#51Senior Male0:31:14 8.6 11938
PROITSIS Michael#743Team Mixed0:31:17 8.6 12011
EVANS Bree#43Senior Female0:31:21 8.6 12112
MARTINOVICH Ivan#714Team Mixed0:31:21 8.6 12212
THURGOOD Gary#24Senior Male0:31:23 8.6 12339
BEISCHER David#27240-49 Male0:31:24 8.6 12414
TAYLOR Cheryl#26540-49 Female0:31:24 8.6 1254
BACKMAN Simon#26Senior Male0:31:28 8.6 12640
JALANDO-ON Mark#56Senior Male0:31:31 8.6 12741
WILDISH Rob#39Senior Male0:31:33 8.6 12842
SHADBOLT Ian#21940-49 Male0:31:36 8.5 12915
MANNING John#84Senior Male0:31:37 8.5 13043
THURGOOD Neville#20Senior Male0:31:42 8.5 13144
ROBERSTON Aisha#738Team Female0:31:46 8.5 1324
O'SHEA Kelly#213Junior Female0:31:47 8.5 1331
O'RYAN Mick#23250+ Male0:31:55 8.5 1349
DAVEY Mark#712Team Mixed0:31:59 8.4 13513
SCHOFIELD Nick#31Senior Male0:32:04 8.4 13645
CAPLE Anna#730Team Female0:32:07 8.4 1375
BUTT Chloe#212Junior Female0:32:14 8.4 1382
FITZGERALD Amy#753Team Mixed0:32:22 8.3 13914
MATTHEWS Bob#23550+ Male0:32:23 8.3 14010
KELSEY David#47Senior Male0:32:26 8.3 14146
CHURCHILL Brodie#742Team Mixed0:32:29 8.3 14215
MACLAREN Lynne#98Senior Female0:32:30 8.3 14313
HUNT Greg#21Senior Male0:32:35 8.3 14447
WHELLER Laurie#23750+ Male0:32:39 8.3 14511
FRITZE Claire#7Senior Female0:32:41 8.3 14614
CARROLL Steve#87Senior Male0:32:44 8.2 14748
MORRISON Adam#78Senior Male0:32:51 8.2 14849
SEWELL Geoffrey#23350+ Male0:32:52 8.2 14912
DAVIE Jasmine#754Team Mixed0:32:53 8.2 15016
KEADY Richard#27450+ Male0:32:56 8.2 15113
HORNSBY Tony#88Senior Male0:32:58 8.2 15250
DALLINGER Brian#24150+ Male0:32:58 8.2 15314
FLEISNER Ben#67Senior Male0:33:00 8.2 15451
LINFORD Rob#725Team Mixed0:33:00 8.2 15517
CUTHBERTSON Diddy#13Senior Female0:33:14 8.1 15615
WHYTE Ken#25650+ Male0:33:15 8.1 15715
STOOPMAN Jo#14Senior Female0:33:25 8.1 15816
COLLIS Dan#37Senior Male0:33:27 8.1 15952
HARMER Darren#751Team Male0:33:28 8.1 16019
ROOKS David#734Team Male0:33:33 8 16120
MEAD Paul#22840-49 Male0:33:36 8 16216
BEOVICH Mark#48Senior Male0:33:45 8 16353
WALKER Christine#726Team Female0:33:49 8 1646
FETTERPLACE David#23650+ Male0:34:04 7.9 16516
MARTIN Peter#22640-49 Male0:34:05 7.9 16617
KEOGH Peter#101Senior Male0:34:07 7.9 16754
THURGOOD Jordan#50Senior Male0:34:15 7.9 16855
FRECKLETON Colin#25240-49 Male0:34:16 7.9 16918
EDWARDS Joff#64Senior Male0:34:21 7.9 17056
ANDERSON Garry#23450+ Male0:34:21 7.9 17117
THURGOOD Phillip#28Senior Male0:34:24 7.8 17257
FLENTJE Kate#100Senior Female0:34:34 7.8 17317
HALL Kerri#70Senior Female0:34:40 7.8 17418
MILLER Lisa Jane#20840-49 Female0:34:44 7.8 1755
CAPLE David#728Team Mixed0:34:45 7.8 17618
CHAMBERLAIN Gary#57Senior Male0:34:52 7.7 17758
CONNELL Carolyn#723Team Mixed0:34:52 7.7 17819
SIMPSON Guy#22140-49 Male0:34:58 7.7 17919
PORTCH Deane#26040-49 Male0:35:01 7.7 18020
LEECH Mark#71Senior Male0:35:06 7.7 18159
WISHART Amy#11Senior Female0:35:14 7.7 18219
FROST Gregory#710Team Mixed0:35:14 7.7 18320
ASTON Danielle#741Team Female0:35:18 7.6 1847
GRIGG Brent#25Senior Male0:35:20 7.6 18560
ROBERTSON Debra#20140-49 Female0:35:28 7.6 1866
MORRISON Kerry#721Team Mixed0:35:35 7.6 18721
SPEIRS Craig#40Senior Male0:35:47 7.5 18861
DEL MASTRO Tony#25440-49 Male0:36:01 7.5 18921
HARPER Karen#5Senior Female0:36:06 7.5 19020
ZIMMERMAN Kirrily#95Senior Female0:36:09 7.5 19121
HUSSEY Mick#27840-49 Male0:36:30 7.4 19222
O'CALLAGHAN Ben#69Senior Male0:36:34 7.4 19362
TROJAN Nadia#2Senior Female0:37:03 7.3 19422
HEWISH Sara#68Senior Female0:37:03 7.3 19523
MC ALLISTER Gerard#90Senior Male0:37:16 7.2 19663
LEWES Johnathon#22240-49 Male0:37:27 7.2 19723
LABINSKI Kara#9Senior Female0:37:39 7.2 19824
LOWE Sally#93Senior Female0:37:56 7.1 19925
O'DONOHUE Mark#737Team Male0:38:06 7.1 20021
ROBINSON Murray#22740-49 Male0:38:30 7 20124
HIND Philip#24840-49 Male0:38:51 6.9 20225
MILLER Claire#24440-49 Female0:39:01 6.9 2037
BENSTEAD Rodney#76Senior Male0:39:43 6.8 20464
MUIR Jill#702Team Female0:39:48 6.8 2058
WRIGHT Bruce#19Senior Male0:39:54 6.8 20665
GUERRA Joe#25540-49 Male0:40:28 6.7 20726
NEVINS Bridgette#703Team Female0:40:47 6.6 2089
NEVINS Rachael#6Senior Female0:41:02 6.6 20926
DEMERS Christina#92Senior Female0:41:27 6.5 21027
FRANCIS Lucy#3Senior Female0:41:43 6.5 21128
FRASER Elise#10Senior Female0:42:27 6.4 21229
WRIGHT Lorena#8Senior Female0:42:33 6.3 21330
FOSTER Darren#60Senior Male0:42:38 6.3 21466
DEWHURST Kim#73Senior Female0:43:09 6.3 21531
MURPHY Christine#1Senior Female0:44:44 6 21632
EDWARDS Christian#61Senior Male0:45:40 5.9 21767
DUFFY Brenda#20740-49 Female0:46:10 5.8 2188
JOHNSTON Brian#746Team Male0:46:33 5.8 21922
TOZER Rod#24640-49 Male0:46:58 5.7 22027
SMITH Christine#20640-49 Female0:47:06 5.7 2219
BEWLEY Rikki#21150+ Female0:48:50 5.5 2221
VILLA Edward#719Team Mixed0:49:18 5.5 22322
VILLA Michelle#720Team Female0:49:19 5.5 22410
KONTEGOURIS Earlene#21050+ Female0:56:01 4.8 2252
BENSTEAD David#22040-49 Male0:00:00 0DNF0
PIROUET Nathan#53Senior Male0:00:00 0DNF0